Regional Weather Roundup
Issued by NWS

Home | Current Version | Previous Version | Text Only | Print | Product List | Glossary Off
Versions: 1 2 3 4 5 6 7 8 9 10 11 12 13 14 15 16 17 18 19 20 21 22 23 24 25 26 27 28 29 30 31 32 33 34 35 36 37 38 39 40 41 42 43 44 45 46 47 48 49 50

000
ASUS43 KLSX 242359
RWRMO

WEATHER SUMMARY FOR MISSOURI
NATIONAL WEATHER SERVICE SPRINGFIELD MO
700 PM CDT MON APR 24 2017

NOTE: "FAIR" INDICATES FEW OR NO CLOUDS BELOW 12,000 FEET WITH NO
       SIGNIFICANT WEATHER AND/OR OBSTRUCTIONS TO VISIBILITY.
       CURRENT SKY AND/OR WEATHER CONDITIONS ARE NOT AVAILABLE FOR
       CHILLICOTHE AND FARMINGTON.

MOZ001>031-035>038-043-044-053-054-250100-
...NORTHERN AND WESTERN MISSOURI...

CITY           SKY/WX    TMP DP  RH WIND       PRES   REMARKS
KANSAS CTY INT MOSUNNY   72  37  28 S17G26    29.60S
6HR MIN TEMP:  72; 6HR MAX TEMP:  75;

KANSAS C DTWN  SUNNY     74  39  28 S14G31    29.60S
6HR MIN TEMP:  73; 6HR MAX TEMP:  77;

LEE`S SUMMIT   CLOUDY    73  37  27 S17       29.62F
6HR MIN TEMP:  70; 6HR MAX TEMP:  76;

ST JOSEPH      CLOUDY    73  42  32 S18G29    29.58F
6HR MIN TEMP:  72; 6HR MAX TEMP:  76;

CHILLICOTHE      N/A     75  28  17 S12G23    29.61F
6HR MIN TEMP:  72; 6HR MAX TEMP:  77;

KIRKSVILLE     PTCLDY    73  34  23 S16G23    29.65S
6HR MIN TEMP:  72; 6HR MAX TEMP:  77;


$$
MOZ066>068-077>081-088>096-101>105-250100-
...SOUTHWEST MISSOURI...

CITY           SKY/WX    TMP DP  RH WIND       PRES   REMARKS
SPRINGFIELD    SUNNY     72  34  24 S14       29.66F
6HR MIN TEMP:  71; 6HR MAX TEMP:  75;

JOPLIN         SUNNY     73  40  30 S16       29.64S
6HR MIN TEMP:  72; 6HR MAX TEMP:  77;

BRANSON        PTCLDY    73  32  21 S10       29.70F

$$
MOZ032>034-039>042-045>050-055>058-069>072-250100-
...CENTRAL MISSOURI...

CITY           SKY/WX    TMP DP  RH WIND       PRES   REMARKS
COLUMBIA       CLEAR     74  31  20 SE13      29.66F
6HR MIN TEMP:  72; 6HR MAX TEMP:  77;

JEFFERSON CITY CLEAR     78  32  18 SE13      29.66F
6HR MIN TEMP:  74; 6HR MAX TEMP:  80;

ROLLA          CLEAR     70  37  29 S9        29.68F
6HR MIN TEMP:  70; 6HR MAX TEMP:  76;

SEDALIA        SUNNY     72  32  23 S13       29.65F
6HR MIN TEMP:  72; 6HR MAX TEMP:  79;

OSAGE BEACH    CLEAR     75  35  23 S8        29.67F

$$
MOZ051-052-059>065-250100-
...EAST CENTRAL MISSOURI...

CITY           SKY/WX    TMP DP  RH WIND       PRES   REMARKS
ST LOUIS INTL  MOCLDY    74  32  21 SE10      29.73F
6HR MIN TEMP:  73; 6HR MAX TEMP:  77;

SPIRIT OF STL  CLEAR     72  35  25 SE8       29.70F
6HR MIN TEMP:  72; 6HR MAX TEMP:  77;

ST CHARLES     CLEAR     74  32  21 SE12      29.70F
6HR MIN TEMP:  73; 6HR MAX TEMP:  78;


$$
MOZ072>076-082>087-097>100-106>115-250100-
...SOUTH CENTRAL AND SOUTHEAST MISSOURI...

CITY           SKY/WX    TMP DP  RH WIND       PRES   REMARKS
CAPE GIRARDEAU CLEAR     71  52  50 SW5       29.73S
6HR MIN TEMP:  71; 6HR MAX TEMP:  76;

FARMINGTON     CLEAR     70  44  39 E6        29.75S
6HR MIN TEMP:  69; 6HR MAX TEMP:  74;

POPLAR BLUFF   CLEAR     71  56  58 S3        29.74S
6HR MIN TEMP:  70; 6HR MAX TEMP:  74;

WEST PLAINS    CLEAR     72  36  26 S8        29.73F
6HR MIN TEMP:  70; 6HR MAX TEMP:  75;


$$



USA.gov is the U.S. government's official web portal to all federal, state and local government web resources and services.